SCP
0 0 0 0 0 0 0 0 0 0 0 0 0 0 0 0 0 0 0 0 0 0 0 0 0 0 0 0 0 0 0 0 0 0 0 0 0 0
0 0 0 0 0 0 0 0 0 0 0 0 0 0 0 0 0 0 0 0 0 0 0 0 0 0 0 0 0 0 0 0 0 0 0 0 0 0
0 0 0 0 0 0 0 0 0 0 0 0 0 0 0 0 0 0 0 0 0 0 0 0 0 0 0 0 0 0 0 0 0 0 0 0 0 0
0 0 0 0 0 0 0 0 0 0 0 0 0 0 0 0 0 0 0 0 0 0 0 0 0 0 0 0 0 0 0 0 0 0 0 0 0 0
0 0 0 0 0 0 0 0 0 0 0 0 0 0 0 0 0 0 0 0 0 0 0 0 0 0 0 0 0 0 0 0 0 0 0 0 0 0
0 0 0 0 0 0 0 0 0 0 0 0 0 0 0 0 0 0 0 0 0 0 0 0 0 0 0 0 0 0 0 0 0 0 0 0 0 0
0 0 0 0 0 0 0 0 0 0 0 0 0 0 0 0 0 0 0 0 0 0 0 0 0 0 0 0 0 0 0 0 0 0 0 0 0 0
0 0 0 0 0 0 0 0 0 0 0 0 0 0 0 0 0 0 0 0 0 0 0 0 0 0 0 0 0 0 0 0 0 0 0 0 0 0
0 0 0 0 0 0 0 0 0 0 0 0 0 0 0 0 0 0 0 0 0 0 0 0 0 0 0 0 0 0 0 0 0 0 0 0 0 0
0 0 0 0 0 0 0 0 0 0 0 0 0 0 0 0 0 0 0 0 0 0 0 0 0 0 0 0 0 0 0 0 0 0 0 0 0 0
0 0 0 0 0 0 0 0 0 0 0 0 0 0 0 0 0 0 0 0 0 0 0 0 0 0 0 0 0 0 0 0 0 0 0 0 0 0
0 0 0 0 0 0 0 0 0 0 0 0 0 0 0 0 0 0 0 0 0 0 0 0 0 0 0 0 0 0 0 0 0 0 0 0 0 0
0 0 0 0 0 0 0 0 0 0 0 0 0 0 0 0 0 0 0 0 0 0 0 0 0 0 0 0 0 0 0 0 0 0 0 0 0 0
0 0 0 0 0 0 0 0 0 0 0 0 0 0 0 0 0 0 0 0 0 0 0 0 0 0 0 0 0 0 0 0 0 0 0 0 0 0
0 0 0 0 0 0 0 0 0 0 0 0 0 0 0 0 0 0 0 0 0 0 0 0 0 0 0 0 0 0 0 0 0 0 0 0 0 0
0 0 0 0 0 0 0 0 0 0 0 0 0 0 0 0 0 0 0 0 0 0 0 0 0 0 0 0 0 0 0 0 0 0 0 0 0 0
0 0 0 0 0 0 0 0 0 0 0 0 0 0 0 0 0 0 0 0 0 0 0 0 0 0 0 0 0 0 0 0 0 0 0 0 0 0
0 0 0 0 0 0 0 0 0 0 0 0 0 0 0 0 0 0 0 0 0 0 0 0 0 0 0 0 0 0 0 0 0 0 0 0 0 0
0 0 0 0 0 0 0 0 0 0 0 0 0 0 0 0 0 0 0 0 0 0 0 0 0 0 0 0 0 0 0 0 0 0 0 0 0 0
0 0 0 0 0 0 0 0 0 0 0 0 0 0 0 0 0 0 0 0 0 0 0 0 0 0 0 0 0 0 0 0 0 0 0 0 0 0
0 0 0 0 0 0 0 0 0 0 0 0 0 0 0 0 0 0 0 0 0 0 0 0 0 0 0 0 0 0 0 0 0 0 0 0 0 0
0 0 0 0 0 0 0 0 0 0 0 0 0 0 0 0 0 0 0 0 0 0 0 0 0 0 0 0 0 0 0 0 0 0 0 0 0 0
0 0 0 0 0 0 0 0 0 0 0 0 0 0 0 0 0 0 0 0 0 0 0 0 0 0 0 0 0 0 0 0 0 0 0 0 0 0
Wind_Speed
6 6 5 4 4 3 3 3 3 4 5 4 2 2 2 2 4 3 3 6 7 6 6 6 7 8 9 10 11 12 12 11 11 11 12 14 14 13
5 6 6 4 4 4 4 4 4 4 5 3 3 3 3 3 4 3 3 6 7 7 7 7 8 9 10 10 11 12 11 11 11 12 13 14 14 13
5 6 6 5 4 4 3 3 4 3 5 4 2 2 3 3 3 3 3 3 4 7 8 8 8 9 9 10 11 12 11 11 11 12 12 13 13 12
6 6 6 4 5 4 4 4 4 4 4 5 3 3 3 3 3 3 3 3 3 6 8 8 9 9 9 10 11 11 10 10 10 11 10 10 10 11
6 7 6 5 6 4 4 4 4 3 3 3 4 2 2 2 2 3 3 3 4 5 7 8 8 8 9 9 10 9 8 8 9 9 9 9 10 12
5 6 5 6 6 5 5 5 3 3 2 3 3 2 2 2 2 2 3 3 3 3 5 6 7 8 9 9 8 8 8 8 9 9 9 9 9 10
4 4 4 5 7 6 5 4 4 3 3 3 3 2 2 2 2 2 3 3 3 2 3 3 3 3 4 6 7 8 8 8 8 9 9 9 9 9
4 3 4 5 6 7 8 7 6 5 4 4 4 4 4 3 2 2 3 3 3 2 2 4 2 3 3 3 6 8 7 7 7 8 8 8 8 8
4 3 3 3 3 3 3 5 6 7 7 5 5 5 4 3 3 3 3 3 4 3 2 4 2 3 3 4 8 8 7 6 7 7 8 8 8 8
3 4 4 3 2 1 1 1 1 2 3 2 3 3 3 2 3 3 3 2 3 2 2 3 3 3 4 3 6 7 7 6 7 8 8 8 8 8
2 3 3 3 4 2 1 1 1 1 2 1 2 1 2 2 1 0 0 1 3 2 1 1 2 3 3 3 4 6 7 7 7 7 7 7 8 7
1 2 3 2 3 2 2 2 1 1 0 1 1 2 1 1 1 1 2 1 1 2 1 1 2 2 3 2 2 3 3 6 7 7 7 7 8 4
1 1 1 1 2 1 1 1 1 0 1 1 1 1 1 1 1 1 1 1 1 2 1 1 1 1 1 3 3 2 2 3 3 4 6 7 8 6
0 0 0 1 1 1 1 1 2 1 1 1 1 0 1 1 1 1 1 1 1 1 1 1 1 1 1 2 3 3 3 3 2 3 3 6 7 8
0 1 1 2 2 1 2 2 1 1 1 1 0 0 1 0 0 1 2 2 2 1 1 1 1 1 1 2 3 3 3 3 3 3 3 4 3 4
1 2 3 4 3 3 2 2 1 1 1 1 0 0 0 0 1 0 1 1 1 2 2 1 1 1 1 2 2 3 3 3 3 3 3 4 4 3
1 2 2 1 1 1 2 1 1 1 1 1 1 1 0 1 1 1 1 1 1 1 2 2 1 1 1 2 2 2 3 2 2 3 3 4 4 3
2 1 1 1 1 1 1 1 1 1 1 1 1 1 0 0 0 1 1 1 0 1 1 2 2 2 1 1 2 2 2 2 3 3 2 3 4 4
2 1 0 0 0 0 1 0 0 0 1 1 1 0 0 0 0 0 0 1 1 1 1 1 1 1 1 2 3 2 1 2 3 3 2 2 3 4
1 1 0 0 0 0 0 0 0 0 1 1 0 0 0 0 0 0 0 0 1 1 1 1 1 1 1 2 2 3 3 2 2 3 3 3 3 4
1 1 0 0 0 0 0 0 0 0 0 0 0 0 0 0 0 0 1 1 1 1 1 2 2 3 1 1 1 2 3 4 3 2 3 3 3 3
1 1 1 0 0 0 0 0 0 0 0 0 0 0 0 0 0 1 1 1 1 1 1 1 1 1 1 0 1 2 3 4 5 6 5 3 1 1
1 1 1 0 0 0 0 0 0 0 0 0 0 0 0 0 0 1 1 1 1 0 0 1 1 1 1 0 0 1 2 3 3 4 4 5 5 3
Wind_Direction
226 224 224 222 215 218 211 206 218 262 266 245 248 249 245 246 255 261 265 275 284 283 282 283 287 287 288 289 289 288 287 286 288 288 290 290 292 287
224 222 227 222 214 213 215 220 225 238 262 263 257 269 261 263 264 271 261 272 277 279 279 284 284 285 286 286 289 287 283 284 285 286 288 288 290 288
230 227 229 223 216 216 215 217 225 229 256 279 278 273 257 256 276 274 271 265 267 274 280 282 282 282 284 287 290 286 282 284 286 286 286 288 289 288
232 232 234 228 223 220 219 227 227 227 237 265 276 270 265 252 261 271 279 276 268 272 278 281 280 280 283 285 290 286 282 282 285 285 286 289 291 291
229 229 230 224 230 227 227 230 229 234 233 247 269 271 279 276 282 283 279 282 279 278 280 278 280 282 282 286 289 288 284 285 286 287 288 289 290 290
233 232 228 225 228 223 228 228 225 228 227 237 260 268 276 280 270 278 291 285 286 294 287 283 287 286 283 286 290 291 286 287 287 288 291 292 294 292
235 235 237 242 241 236 237 224 214 218 222 235 250 268 264 264 264 277 285 296 289 273 287 285 288 282 282 286 292 293 287 287 291 293 294 297 300 296
239 240 243 243 248 249 247 239 228 219 222 227 243 249 259 267 273 271 282 298 291 272 288 286 277 276 284 286 297 299 292 294 299 301 298 300 300 298
232 232 249 250 252 244 250 249 242 241 235 232 235 242 246 242 240 258 272 282 279 282 291 279 281 277 287 293 301 304 301 298 301 305 306 302 302 303
220 222 229 234 237 243 227 235 257 261 254 247 230 243 246 226 226 239 259 288 298 295 300 282 300 293 301 298 299 307 315 313 312 311 308 307 309 310
225 224 224 217 221 221 176 196 282 328 342 297 282 273 267 276 262 118 253 297 306 297 328 298 299 303 301 296 301 314 318 315 317 319 320 325 325 322
241 226 223 226 223 211 181 173 201 267 349 22 24 22 18 346 275 218 208 245 300 289 303 315 296 322 316 309 320 326 324 325 327 329 332 336 336 331
232 257 231 212 219 201 195 181 191 144 118 99 55 33 32 33 20 355 302 231 238 255 272 323 291 301 289 309 323 325 329 330 338 335 334 336 334 331
265 265 143 127 111 84 70 103 95 69 92 95 78 10 12 13 14 11 7 356 304 249 262 285 265 267 295 306 305 320 331 330 335 332 333 335 333 331
14 39 57 78 64 72 73 64 64 86 112 124 159 305 326 332 49 31 23 24 16 358 331 299 264 268 270 274 293 311 322 327 333 335 335 334 326 325
59 84 67 64 51 57 56 46 44 108 148 156 145 66 47 64 51 32 19 16 18 1 359 320 285 267 273 276 276 294 300 299 323 333 333 329 326 324
58 69 64 57 44 43 43 51 69 79 75 75 94 88 62 51 32 33 34 14 12 339 341 343 328 288 264 259 275 280 295 300 306 323 330 325 320 325
65 79 70 65 67 56 56 49 60 67 76 86 97 113 130 93 35 27 30 40 37 333 325 318 328 351 359 330 257 270 292 301 317 325 321 320 323 332
77 93 93 94 87 87 97 94 56 38 77 109 122 123 122 74 88 66 39 30 3 323 312 306 319 349 355 328 323 314 294 314 326 332 328 314 311 320
73 85 49 129 163 157 159 162 129 90 69 77 89 112 154 165 76 332 296 311 309 312 309 305 315 320 286 283 296 313 327 319 319 321 321 318 308 314
27 31 348 254 165 160 157 162 171 189 187 111 56 47 181 163 263 273 270 293 312 279 285 295 294 314 320 11 341 329 333 346 347 324 314 319 329 343
13 5 344 9 35 153 144 123 92 29 73 55 332 339 282 233 215 231 246 267 281 277 286 302 328 348 36 79 318 325 333 341 350 351 344 333 328 340
344 336 329 335 310 168 144 148 185 265 262 254 269 289 274 253 246 239 244 251 269 290 314 328 349 10 13 157 288 324 336 339 342 352 351 353 355 342